Address 0xbd342868d7e05896c201cbe4deaea653cc6b5eaa 11

 
Txn Hash Method
Block
From
To
Value [Txn Fee]
0xedb58ed05bbcb18b942f845844387ecb0cd599595a4e64b99e0549ff1c6b8aacFulfill Player P...2142517362024-05-23 15:40:291 hr 12 mins ago0xbd342868d7e05896c201cbe4deaea653cc6b5eaaOUT 0x5311ef5370eaf6eb428dd4ea556aa3461269aee00 ETH0.00000362 0.01
0xd7187f6fc6bba7598f8d34deefd77b08269e32db742e8f09fa0cc82064070357Fulfill Player P...2142517212024-05-23 15:40:251 hr 12 mins ago0xbd342868d7e05896c201cbe4deaea653cc6b5eaaOUT 0x5311ef5370eaf6eb428dd4ea556aa3461269aee00 ETH0.00000755 0.01
0x74976938467ee1df11d631e69e6e9c7af8560288d8b593c5073bd0da9797510fFulfill Player P...2142517102024-05-23 15:40:231 hr 12 mins ago0xbd342868d7e05896c201cbe4deaea653cc6b5eaaOUT 0x5311ef5370eaf6eb428dd4ea556aa3461269aee00 ETH0.00000785 0.01
0x277076c94395a84465f852528a50bc28ed6f19d2390754362ff0e2935dbc996bFulfill Player P...2142516792024-05-23 15:40:151 hr 12 mins ago0xbd342868d7e05896c201cbe4deaea653cc6b5eaaOUT 0x5311ef5370eaf6eb428dd4ea556aa3461269aee00 ETH0.00000845 0.01
0xd874f296b451cf7d727818aa0d1da898d4ca1c526d97417eba33852ac5b7efbdFulfill Player P...2142489272024-05-23 15:28:381 hr 24 mins ago0xbd342868d7e05896c201cbe4deaea653cc6b5eaaOUT 0x5311ef5370eaf6eb428dd4ea556aa3461269aee00 ETH0.00000888 0.01
0x8a0c7d64931050301ba40c27d5d379d18fe510ba03cba783ea160973c11e6e13Fulfill Player P...2142489152024-05-23 15:28:351 hr 24 mins ago0xbd342868d7e05896c201cbe4deaea653cc6b5eaaOUT 0x5311ef5370eaf6eb428dd4ea556aa3461269aee00 ETH0.00000956 0.01
0x1008b25d5d213ff008ca5afef5e38758e73a3769c6146893e23153bc2d61f22cFulfill Player P...2142461742024-05-23 15:16:571 hr 36 mins ago0xbd342868d7e05896c201cbe4deaea653cc6b5eaaOUT 0x5311ef5370eaf6eb428dd4ea556aa3461269aee00 ETH0.00000915 0.014858
0x26bb3a5b06ae02c6c840cd527c4779e988b1999920c07510b8be2bf8edf65687Fulfill Player P...2142460832024-05-23 15:16:371 hr 36 mins ago0xbd342868d7e05896c201cbe4deaea653cc6b5eaaOUT 0x5311ef5370eaf6eb428dd4ea556aa3461269aee00 ETH0.00001035 0.014662
0x04107109d1aeb3c8db7da5426d22ba15c50918c0060e11ec3599164d624ba737Fulfill Player P...2142460242024-05-23 15:16:211 hr 36 mins ago0xbd342868d7e05896c201cbe4deaea653cc6b5eaaOUT 0x5311ef5370eaf6eb428dd4ea556aa3461269aee00 ETH0.00001076 0.014298
0x400f7fa027e832fb39175b2ce43293e8d5e43b57398ee70f6d6eca6110f72117Fulfill Player P...2142457082024-05-23 15:14:491 hr 38 mins ago0xbd342868d7e05896c201cbe4deaea653cc6b5eaaOUT 0x5311ef5370eaf6eb428dd4ea556aa3461269aee00 ETH0.00000262 0.011259
0x2c19c893d16ba3941991e9aaa00053f27203714eab07b488a704a2035c90f8bfFulfill Player P...2142456962024-05-23 15:14:461 hr 38 mins ago0xbd342868d7e05896c201cbe4deaea653cc6b5eaaOUT 0x5311ef5370eaf6eb428dd4ea556aa3461269aee00 ETH0.00001777 0.011331
0x1516d23c9b48b2bd889c4a996c7af7a75b78a5aa8527c3969331f59d088e304cFulfill Player P...2142456812024-05-23 15:14:421 hr 38 mins ago0xbd342868d7e05896c201cbe4deaea653cc6b5eaaOUT 0x5311ef5370eaf6eb428dd4ea556aa3461269aee00 ETH0.00000781 0.011349
0x4c8e82ee99b492cd362b9824149568c3174eed17e47f90438be79bd3ae330a76Fulfill Player P...2142456692024-05-23 15:14:391 hr 38 mins ago0xbd342868d7e05896c201cbe4deaea653cc6b5eaaOUT 0x5311ef5370eaf6eb428dd4ea556aa3461269aee00 ETH0.00001656 0.011256
0x594f4638c1a7bcaf9530f7ce48d574e4e68d3ce3b652dcb5a92347d4a8c3ce3fFulfill Player P...2142425282024-05-23 15:01:091 hr 52 mins ago0xbd342868d7e05896c201cbe4deaea653cc6b5eaaOUT 0x5311ef5370eaf6eb428dd4ea556aa3461269aee00 ETH0.00000876 0.01233
0xe7536a76ffde3c1914a2acf27b85d6669031b9c15be2916733f866f4f66c06baFulfill Player P...2142424782024-05-23 15:00:561 hr 52 mins ago0xbd342868d7e05896c201cbe4deaea653cc6b5eaaOUT 0x5311ef5370eaf6eb428dd4ea556aa3461269aee00 ETH0.00000894 0.011134
0xd01005a915341dc997c0c797ba7168dbe97cd308aa9406609c0fb2a6493e65b0Fulfill Player P...2142421122024-05-23 14:59:191 hr 53 mins ago0xbd342868d7e05896c201cbe4deaea653cc6b5eaaOUT 0x5311ef5370eaf6eb428dd4ea556aa3461269aee00 ETH0.0000038 0.010868
0x5a2c799500020337e0440246972561736337b8875de5b0d5edef8427ceee80e8Fulfill Player P...2142420812024-05-23 14:59:111 hr 54 mins ago0xbd342868d7e05896c201cbe4deaea653cc6b5eaaOUT 0x5311ef5370eaf6eb428dd4ea556aa3461269aee00 ETH0.00000865 0.011149
0xb1f05b8656cb4d16b35de68564b7e5f082b30797f8b9ab030318f4f029acccebFulfill Player P...2142420502024-05-23 14:59:031 hr 54 mins ago0xbd342868d7e05896c201cbe4deaea653cc6b5eaaOUT 0x5311ef5370eaf6eb428dd4ea556aa3461269aee00 ETH0.00000897 0.01148
0x85842140a57bc4412bc9aff94abe6c74f9ad92e4cc0bad50b6c97a4f0468cf33Fulfill Player P...2142420372024-05-23 14:59:001 hr 54 mins ago0xbd342868d7e05896c201cbe4deaea653cc6b5eaaOUT 0x5311ef5370eaf6eb428dd4ea556aa3461269aee00 ETH0.00001711 0.011246
0xff064665e3b123538e61944423e93d99bfa45d394b8f22d026acca3f4b056aebFulfill Player P...2142416612024-05-23 14:57:251 hr 55 mins ago0xbd342868d7e05896c201cbe4deaea653cc6b5eaaOUT 0x5311ef5370eaf6eb428dd4ea556aa3461269aee00 ETH0.00000376 0.01
0x61560d63d60f3f55936e3f12ea516c35eb0438be6ab30730cccaafb704b069e5Fulfill Player P...2142416502024-05-23 14:57:221 hr 55 mins ago0xbd342868d7e05896c201cbe4deaea653cc6b5eaaOUT 0x5311ef5370eaf6eb428dd4ea556aa3461269aee00 ETH0.00000752 0.01
0x395c74279cd74a7f08f770c55698bfd5cd34be74f07763be68cec667d5c01653Fulfill Player P...2142416222024-05-23 14:57:151 hr 55 mins ago0xbd342868d7e05896c201cbe4deaea653cc6b5eaaOUT 0x5311ef5370eaf6eb428dd4ea556aa3461269aee00 ETH0.00000831 0.01
0x5aa3124aa0250bf4176ba99ce1ba8ad6d2ba369e092501686d38cd8844301275Fulfill Player P...2142412582024-05-23 14:55:411 hr 57 mins ago0xbd342868d7e05896c201cbe4deaea653cc6b5eaaOUT 0x5311ef5370eaf6eb428dd4ea556aa3461269aee00 ETH0.00000278 0.01
0x647f091fb31514a2229636f676dc086672971e88d096b24be1c9d4620450c5ffFulfill Player P...2142412472024-05-23 14:55:381 hr 57 mins ago0xbd342868d7e05896c201cbe4deaea653cc6b5eaaOUT 0x5311ef5370eaf6eb428dd4ea556aa3461269aee00 ETH0.00000745 0.01
0x86e68b0b3a409c69dec7647903bfa7c6c2a33141b0d4022225f157e21c8559f0Fulfill Player P...2142412362024-05-23 14:55:351 hr 57 mins ago0xbd342868d7e05896c201cbe4deaea653cc6b5eaaOUT 0x5311ef5370eaf6eb428dd4ea556aa3461269aee00 ETH0.00000749 0.01
[ Download CSV Export 
Parent Txn Hash Block From To Value
Loading

Contract Name:
0 ETH

Compiler Version
0

Optimization Enabled:
0 ETH

Other Settings:
-NA-
Block Transaction Gas Used Reward
Age Block Fee Address BC Fee Address Voting Power Jailed Incoming
Block Uncle Number Difficulty Gas Used Reward
Loading
Make sure to use the "Vote Down" button for any spammy posts, and the "Vote Up" for interesting conversations.